Weather History for Granada, Spain

Change the Weather History Date:

Monday, May 5, 2014

  Actual Average Record
Temperature  
Mean Temperature 67 °F -  
Max Temperature 89 °F 78 °F 89 °F (2014)
Min Temperature 45 °F 50 °F 42 °F (1998)
Cooling Degree Days 2    
Growing Degree Days 17 (Base 50)    
Moisture  
Dew Point 42 °F    
Average Humidity 36    
Maximum Humidity 81    
Minimum Humidity 11    
Precipitation  
Precipitation 0.00 in - - ()
Sea Level Pressure  
Sea Level Pressure 29.93 in    
Wind  
Wind Speed 3 mph ()    
Max Wind Speed 15 mph    
Max Gust Speed -    
Visibility 18.5 miles    
Events      
Averages and records for this station are not official NWS values.
T = Trace of Precipitation, MM = Missing Value Source: Averaged Metar Reports

Daily Weather History Graph

Daily Weather History Graph

Search for Another Location

Airport:

Trip Planner

Search our weather history database for the weather conditions in past years. The results will help you decide how hot, cold, wet, or windy it might be!

Date:

Astronomy

May. 05, 2014 Rise Set
Actual Time 7:16 AM CEST 9:07 PM CEST
Civil Twilight 6:48 AM CEST 9:36 PM CEST
Nautical Twilight 6:13 AM CEST 10:10 PM CEST
Astronomical Twilight 5:37 AM CEST 10:47 PM CEST
Moon 12:22 PM CEST (5/5) 1:43 AM CEST (5/5)
Length of Visible Light 14h 48m
Length of Day
13h 51m
Waxing Crescent, 34% of the Moon is Illuminated
May 5
Waxing Crescent
May 7
First Quarter
May 14
Full
May 21
Last Quarter
May 28
New

Hourly Weather History & Observations

Time (CEST) Temp. Dew Point Humidity Pressure Visibility Wind Dir Wind Speed Gust Speed Precip Events Conditions
12:00 AM 60 °F 44 °F 44% 29.92 in 19 mi NNW 1.2 mph - -  
1:00 AM 56 °F 43 °F 51% 29.95 in 19 mi Calm Calm - -  
2:00 AM 55 °F 42 °F 51% 29.95 in 19 mi Calm Calm - -  
3:00 AM 53 °F 42 °F 57% 29.96 in 19 mi Calm Calm - -  
4:00 AM 51 °F 42 °F 62% 29.97 in 19 mi Calm Calm - -  
5:00 AM 51 °F 43 °F 65% 29.97 in 19 mi Calm Calm - -  
6:00 AM 48 °F 42 °F 72% 29.99 in 19 mi Calm Calm - -  
6:00 AM 50.0 °F 42.8 °F 76% 29.98 in - Variable 1.2 mph - N/A   Clear
6:30 AM 50.0 °F 41.0 °F 71% 29.98 in - Variable 1.2 mph - N/A   Clear
7:00 AM 46 °F 40 °F 72% 30.00 in 19 mi Calm Calm - -  
7:00 AM 48.2 °F 41.0 °F 76% 29.98 in - Variable 1.2 mph - N/A   Clear
7:30 AM 46.4 °F 41.0 °F 81% 29.98 in - Calm Calm - N/A   Clear
8:00 AM 51 °F 42 °F 61% 30.00 in 16 mi South 2.3 mph - -   Clear
8:00 AM 48.2 °F 41.0 °F 76% 29.98 in - Variable 1.2 mph - N/A   Clear
8:30 AM 53.6 °F 42.8 °F 67% 29.98 in - Calm Calm - N/A   Clear
9:00 AM 60 °F 44 °F 43% 29.96 in 16 mi Calm Calm - -   Clear
9:00 AM 57.2 °F 44.6 °F 63% 29.98 in - Calm Calm - N/A   Clear
9:30 AM 60.8 °F 44.6 °F 55% 29.98 in - Calm Calm - N/A   Clear
10:00 AM 67 °F 42 °F 29% 29.94 in 19 mi NNE 2.3 mph - -  
10:00 AM 64.4 °F 42.8 °F 45% 29.98 in - Variable 1.2 mph - N/A   Clear
10:30 AM 68.0 °F 46.4 °F 46% 29.98 in - Variable 2.3 mph - N/A   Clear
11:00 AM 73 °F 43 °F 23% 29.92 in 19 mi NNE 2.3 mph - -  
11:00 AM 69.8 °F 46.4 °F 43% 29.98 in - Variable 2.3 mph - N/A   Clear
11:30 AM 73.4 °F 44.6 °F 36% 29.98 in - Variable 1.2 mph - N/A   Clear
12:00 PM 79 °F 45 °F 20% 29.89 in 17 mi NNE 2.3 mph - -  
12:00 PM 75.2 °F 42.8 °F 31% 29.98 in - Variable 1.2 mph - N/A   Clear
12:30 PM 78.8 °F 44.6 °F 30% 29.98 in - Variable 3.5 mph - N/A   Clear
1:00 PM 83 °F 42 °F 14% 29.86 in 19 mi ESE 5.8 mph - -  
1:00 PM 80.6 °F 46.4 °F 30% 29.98 in - SE 5.8 mph - N/A   Clear
1:30 PM 82.4 °F 44.6 °F 26% 29.95 in - South 6.9 mph - N/A   Clear
2:00 PM 84 °F 42 °F 13% 29.84 in 19 mi East 6.9 mph - -  
2:00 PM 82.4 °F 42.8 °F 25% 29.95 in - ESE 8.1 mph - N/A   Clear
2:30 PM 84.2 °F 42.8 °F 23% 29.95 in - Variable 2.3 mph - N/A   Clear
3:00 PM 86 °F 44 °F 14% 29.83 in 19 mi NNW 4.6 mph - -  
3:00 PM 84.2 °F 46.4 °F 27% 29.95 in - NNW 4.6 mph - N/A   Clear
3:30 PM 84.2 °F 44.6 °F 25% 29.95 in - WNW 4.6 mph - N/A   Clear
4:00 PM 87 °F 43 °F 13% 29.81 in 17 mi NE 2.3 mph - -  
4:00 PM 86.0 °F 44.6 °F 23% 29.95 in - Variable 3.5 mph - N/A   Clear
4:30 PM 86.0 °F 44.6 °F 23% 29.92 in - Variable 1.2 mph - N/A   Clear
5:00 PM 88 °F 41 °F 11% 29.79 in 19 mi West 3.5 mph - -  
5:00 PM 86.0 °F 44.6 °F 23% 29.92 in - West 4.6 mph - N/A   Clear
5:30 PM 86.0 °F 41.0 °F 20% 29.92 in - Variable 2.3 mph - N/A   Clear
6:00 PM 87 °F 40 °F 11% 29.79 in 19 mi SE 11.5 mph - -  
6:00 PM 86.0 °F 41.0 °F 20% 29.92 in - SE 11.5 mph - N/A   Clear
6:30 PM 84.2 °F 42.8 °F 23% 29.92 in - SSE 11.5 mph - N/A   Clear
7:00 PM 84 °F 40 °F 12% 29.80 in 17 mi SSE 15.0 mph - -  
7:00 PM 82.4 °F 41.0 °F 23% 29.92 in - SSE 13.8 mph - N/A   Clear
7:30 PM 80.6 °F 41.0 °F 24% 29.92 in - SSE 12.7 mph - N/A   Clear
8:00 PM 81 °F 35 °F 11% 29.81 in 19 mi SSE 13.8 mph - -  
8:00 PM 78.8 °F 39.2 °F 24% 29.92 in - SSE 12.7 mph - N/A   Clear
8:30 PM 77.0 °F 39.2 °F 26% 29.92 in - South 10.4 mph - N/A   Clear
9:00 PM 75 °F 38 °F 16% 29.85 in 19 mi South 11.5 mph - -  
9:00 PM 75.2 °F 39.2 °F 27% 29.92 in - South 10.4 mph - N/A   Clear
9:30 PM 73.4 °F 39.2 °F 29% 29.95 in - South 9.2 mph - N/A   Clear
10:00 PM 71 °F 39 °F 20% 29.89 in 19 mi NW 4.6 mph - -  
10:00 PM 71.6 °F 41.0 °F 33% 29.95 in - Variable 1.2 mph - N/A   Clear
10:30 PM 71.6 °F 39.2 °F 31% 29.98 in - SSW 10.4 mph - N/A   Clear
11:00 PM 67 °F 41 °F 27% 29.95 in 19 mi SE 6.9 mph - -  
11:00 PM 68.0 °F 42.8 °F 40% 30.01 in - SSE 5.8 mph - N/A   Clear